Tracking 31027 objects as of 19-Jul-2025
HD Live streaming from Space Station
objects crossing your sky now

STARLINK-3582

Track STARLINK-3582 now!
10-day predictions
STARLINK-3582 is classified as:


NORAD ID: 51873
Int'l Code: 2022-022X
Perigee: 546.0 km
Apogee: 547.8 km
Inclination: 53.2 °
Period: 95.4 minutes
Semi major axis: 6917 km
RCS: Unknown
Launch date: March 3, 2022
Source: United States (US)
Launch site: AIR FORCE EASTERN TEST RANGE (AFETR)
Your satellite tracking list
NOAA 16 DEB
Track 1 satellite(s)




NASA's NSSDC Master Catalog

Two Line Element Set (TLE):
1 51873U 22022X   25199.64439242  .00001066  00000-0  85026-4 0  9990
2 51873  53.2187 339.8005 0001284  88.6068 271.5071 15.08839612187788
Source of the keplerian elements: AFSPC